Location: *
(37.5724°S, 58.0067°E)
Time: 20:00:57
(UTC+00:00)

Cosmos 1437 - Pass Details

Date: 26 September 2020
Orbit: 365 x 369 km, 81.2° (Epoch: 27 October)

Event Time Altitude Azimuth Distance (km) Brightness Sun altitude
Rises 15:10:05 0° 342° (NNW) 2,221 6.5 -13.0°
Reaches altitude 10° 15:12:05 10° 336° (NNW) 1,379 5.5 -13.4°
Maximum altitude 15:15:00 49° 260° (W) 500 3.6 -13.9°
Drops below altitude 10° 15:17:57 10° 183° (S) 1,399 5.6 -14.5°
Sets 15:20:00 0° 177° (S) 2,259 6.6 -14.9°
